This demonstration page uses our WeatherBlox Daily Observations layout. Learn more.

Left ArrowRight Arrow

Hourly Observations for November 25, 2018

Temp ( °F °C ) Dew Point ( °F °C ) Humidity (%) Winds ( mph kmh ) Pressure ( in mb ) Visibility ( mi km ) Precip ( " mm )
12:15 am 00:15 Windy with Snow Likely 32 0 30 -1 93 93 NNE 25 41 29.85 1011 2 3 0.00 0.00
12:23 am 00:23 Windy with Snow Likely 32 0 30 -1 93 93 NNE 28 44 29.88 1012 2 3 0.00 0.00
12:45 am 00:45 Windy with Snow Likely 30 -1 30 -1 100 100 NNE 28 44 29.91 1013 3 4 0.00 0.00
12:57 am 00:57 Windy with Snow Likely 31 -0.6 29 -1.7 92 92 N 29 46 29.83 1010 3 4 0.01 0.25
1:05 am 01:05 Windy with Snow Likely 30 -1 28 -2 93 93 N 30 48 29.91 1013 3 5 0.00 0.00
1:57 am 01:57 Windy with Snow Likely 28 -2.2 27 -2.8 96 96 N 26 43 29.85 1011 3 5 0.00 0.03
2:11 am 02:11 Windy with Snow Likely 28 -2 27 -3 93 93 N 28 44 29.94 1014 2 3 0.00 0.00
2:36 am 02:36 Windy with Snow Likely 27 -3 27 -3 100 100 N 32 52 29.94 1014 2 2 0.00 0.03
2:57 am 02:57 Windy with Snow Likely 27 -2.8 25 -3.9 92 92 N 35 56 29.86 1011 1 2 0.00 0.03
3:21 am 03:21 Windy with Snow Likely 27 -3 25 -4 93 93 N 35 56 29.94 1014 1 1 0.00 0.00
3:36 am 03:36 Windy with Snow Likely 25 -4 25 -4 100 100 N 30 48 30.00 1016 1 2 0.00 0.03
3:53 am 03:53 Windy with Snow Likely 27 -3 25 -4 93 93 N 29 46 29.97 1015 2 2 0.00 0.00
3:57 am 03:57 Windy with Snow Likely 26 -3.3 24 -4.4 92 92 N 29 46 29.90 1012 1 2 0.00 0.03
4:01 am 04:01 Windy with Snow Likely 25 -4 25 -4 100 100 N 35 56 30.00 1016 1 1 0.00 0.00
4:19 am 04:19 Windy with Snow Likely 25 -4 23 -5 93 93 N 32 52 30.00 1016 1 1 0.00 0.00
4:25 am 04:25 Windy with Snow Likely 25 -4 23 -5 93 93 N 26 43 30.00 1016 1 2 0.00 0.00
4:40 am 04:40 Windy with Snow Likely 25 -4 23 -5 93 93 N 29 46 30.00 1016 1 1 0.00 0.03
4:44 am 04:44 Windy with Snow Likely 25 -4 23 -5 93 93 N 31 50 30.00 1016 1 2 0.00 0.03
4:51 am 04:51 Windy with Snow Likely 25 -4 23 -5 93 93 N 26 43 30.00 1016 1 2 0.00 0.00
4:57 am 04:57 Windy with Snow Likely 25 -3.9 23 -5 92 92 N 30 48 29.93 1014 1 2 0.00 0.03
5:05 am 05:05 Windy with Snow Likely 25 -4 23 -5 93 93 N 29 46 30.03 1017 2 2 0.00 0.00
5:23 am 05:23 Windy with Snow Likely 25 -4 21 -6 86 86 N 31 50 30.03 1017 1 2 0.00 0.03
5:51 am 05:51 Windy with Snow Likely 25 -4 21 -6 86 86 N 31 50 30.06 1018 1 2 0.00 0.00
5:57 am 05:57 Windy with Snow Likely 24 -4.4 21 -6.1 88 88 N 33 54 29.98 1015 1 2 0.00 0.03
6:54 am 06:54 Windy with Snow Likely 23 -5 19 -7 86 86 N 36 57 30.09 1019 1 2 0.00 0.03
6:57 am 06:57 Windy with Snow Likely 23 -5 20 -6.7 88 88 N 33 54 30.01 1016 1 2 0.00 0.03
7:05 am 07:05 Windy with Snow Likely 23 -5 19 -7 86 86 N 30 48 30.09 1019 3 4 0.00 0.00
7:20 am 07:20 Windy with Snow Likely 23 -5 19 -7 86 86 N 33 54 30.09 1019 2 2 0.00 0.03
7:47 am 07:47 Windy with Snow Likely 23 -5 21 -6 93 93 N 31 50 30.09 1019 1 1 0.00 0.00
7:57 am 07:57 Windy with Snow Likely 23 -5 20 -6.7 88 88 N 35 56 30.04 1017 1 1 0.00 0.03
8:09 am 08:09 Windy with Snow Likely 23 -5 19 -7 86 86 N 25 41 30.12 1020 1 1 0.00 0.00
8:18 am 08:18 Windy with Snow Likely 23 -5 21 -6 93 93 N 32 52 30.12 1020 0 0 0.00 0.03
8:30 am 08:30 Windy with Snow Likely 23 -5 21 -6 93 93 N 29 46 30.12 1020 1 1 0.00 0.03
8:48 am 08:48 Windy with Snow Likely 23 -5 21 -6 93 93 N 31 50 30.15 1021 1 1 0.00 0.03
8:57 am 08:57 Cloudy with Light Snow 23 -5 21 -6.1 92 92 undefined N/A N/A 1 2 0.00 0.03
9:05 am 09:05 Windy with Snow Likely 23 -5 19 -7 86 86 N 29 46 30.15 1021 2 2 0.00 0.00
9:18 am 09:18 Windy with Snow Likely 25 -4 19 -7 80 80 N 29 46 30.15 1021 3 5 0.00 0.00
9:57 am 09:57 Windy with Snow Likely 0 -17.8 0 -17.8 100 100 N 30 48 30.14 1021 3 4 0.00 0.00
10:08 am 10:08 Windy with Snow Likely 0 -18 0 -18 100 100 N 29 46 30.33 1027 3 5 0.00 0.03
10:20 am 10:20 Windy with Snow Likely N/A N/A N/A N 29 46 N/A 4 6 0.00 0.03
10:57 am 10:57 Cloudy N/A N/A N/A N 26 43 N/A 9 14 0.00 0.03
11:57 am 11:57 Cloudy with Overcast and Windy N/A N/A N/A N 29 46 N/A 3 5 0.00 0.03
12:57 pm 12:57 Windy with Snow Likely N/A N/A N/A N 24 39 N/A 9 14 0.00 0.03
1:57 pm 13:57 Cloudy N/A N/A N/A N 29 46 N/A 10 16 0.00 0.00
2:57 pm 14:57 Cloudy N/A N/A N/A N 30 48 N/A 10 16 0.00 0.00
3:57 pm 15:57 Cloudy N/A N/A N/A NNW 23 37 N/A 10 16 0.00 0.00
4:57 pm 16:57 Cloudy N/A N/A N/A NNW 21 33 N/A 10 16 0.00 0.00
5:57 pm 17:57 Cloudy N/A N/A N/A NNW 25 41 N/A 10 16 0.00 0.00
6:57 pm 18:57 Cloudy N/A N/A N/A N 20 31 N/A 10 16 0.00 0.00
7:57 pm 19:57 Cloudy N/A N/A N/A N 15 24 N/A 10 16 0.00 0.00
8:57 pm 20:57 Cloudy N/A N/A N/A N 12 19 N/A 10 16 0.00 0.00
9:57 pm 21:57 Cloudy N/A N/A N/A NNW 12 19 N/A 10 16 0.00 0.00
10:57 pm 22:57 Cloudy N/A N/A N/A NNW 12 19 N/A 10 16 0.00 0.00
11:57 pm 23:57 Cloudy N/A N/A N/A NNW 16 26 N/A 10 16 0.00 0.00

Powered by AerisWeather